• în România
  • Lista ţărilor
  • Pe 7 zile
  • Temperatura apei
  • Hartă satelitară
  • Meteo pe hartă
  • Widget-uri
  • user-avatar
    Intrare

    Meteo pe oră la Lampeter

    Astăzi, 21 Iulie, Sâmbătă

    Timp Temperatura Precipitaţii Vânt Presiune Umiditate
    00:00 +15°C° 0 mm 2 m/s 754 mmHg 97%
    01:00 +15°C° 0 mm 1 m/s 754 mmHg 97%
    02:00 +15°C° 0 mm 1 m/s 754 mmHg 97%
    03:00 +14°C° 0 mm 1 m/s 754 mmHg 97%
    04:00 +15°C° 0 mm 1 m/s 754 mmHg 96%
    05:00 +15°C° 0 mm 1 m/s 754 mmHg 96%
    06:00 +16°C° 0 mm 2 m/s 754 mmHg 95%
    07:00 +17°C° 0 mm 2 m/s 754 mmHg 92%
    08:00 +18°C° 0 mm 2 m/s 754 mmHg 88%
    09:00 +19°C° 0 mm 2 m/s 754 mmHg 85%
    10:00 +19°C° 0 mm 2 m/s 754 mmHg 82%
    11:00 +20°C° 0 mm 3 m/s 755 mmHg 79%
    12:00 +20°C° 0 mm 3 m/s 755 mmHg 76%
    13:00 +20°C° 0 mm 3 m/s 755 mmHg 76%
    14:00 +20°C° 0 mm 4 m/s 754 mmHg 76%
    15:00 +19°C° 0 mm 4 m/s 754 mmHg 76%
    16:00 +19°C° 0 mm 4 m/s 754 mmHg 77%
    17:00 +18°C° 0 mm 4 m/s 754 mmHg 79%
    18:00 +17°C° 0 mm 5 m/s 754 mmHg 80%
    19:00 +17°C° 0 mm 4 m/s 754 mmHg 83%
    20:00 +15°C° 0 mm 4 m/s 754 mmHg 87%
    21:00 +14°C° 0 mm 4 m/s 754 mmHg 90%
    22:00 +14°C° 0 mm 4 m/s 754 mmHg 91%
    23:00 +14°C° 0 mm 4 m/s 754 mmHg 92%

    Mâine, 22 Iulie, Duminică

    Timp Temperatura Precipitaţii Vânt Presiune Umiditate
    00:00 +14°C° 0 mm 4 m/s 754 mmHg 94%
    01:00 +14°C° 0 mm 4 m/s 754 mmHg 94%
    02:00 +15°C° 0 mm 4 m/s 754 mmHg 94%
    03:00 +15°C° 0 mm 4 m/s 753 mmHg 95%
    04:00 +15°C° 0 mm 5 m/s 754 mmHg 94%
    05:00 +16°C° 0 mm 5 m/s 754 mmHg 94%
    06:00 +16°C° 0 mm 5 m/s 754 mmHg 93%
    07:00 +19°C° 0 mm 5 m/s 754 mmHg 90%
    08:00 +20°C° 0 mm 5 m/s 754 mmHg 87%
    09:00 +21°C° 0 mm 6 m/s 754 mmHg 84%
    10:00 +22°C° 0 mm 6 m/s 754 mmHg 81%
    11:00 +22°C° 0 mm 6 m/s 754 mmHg 78%
    12:00 +23°C° 0 mm 6 m/s 754 mmHg 75%
    13:00 +23°C° 0 mm 6 m/s 754 mmHg 75%
    14:00 +23°C° 0 mm 6 m/s 755 mmHg 74%
    15:00 +23°C° 0 mm 6 m/s 755 mmHg 74%
    16:00 +23°C° 0 mm 5 m/s 755 mmHg 76%
    17:00 +22°C° 0 mm 5 m/s 755 mmHg 79%
    18:00 +21°C° 0 mm 5 m/s 755 mmHg 81%
    19:00 +20°C° 0 mm 4 m/s 755 mmHg 85%
    20:00 +19°C° 0 mm 4 m/s 755 mmHg 89%
    21:00 +18°C° 0 mm 3 m/s 755 mmHg 94%
    22:00 +18°C° 0 mm 3 m/s 755 mmHg 95%
    23:00 +17°C° 0 mm 3 m/s 755 mmHg 96%

    Poimâine, 23 Iulie, Luni

    Timp Temperatura Precipitaţii Vânt Presiune Umiditate
    00:00 +17°C° 0 mm 3 m/s 755 mmHg 97%
    01:00 +17°C° 0 mm 3 m/s 754 mmHg 97%
    02:00 +17°C° 0 mm 3 m/s 754 mmHg 97%
    03:00 +17°C° 0 mm 3 m/s 754 mmHg 97%
    04:00 +17°C° 0 mm 3 m/s 754 mmHg 96%
    05:00 +18°C° 0 mm 4 m/s 754 mmHg 95%
    06:00 +18°C° 0 mm 4 m/s 754 mmHg 93%
    07:00 +19°C° 0 mm 4 m/s 754 mmHg 90%
    08:00 +20°C° 0 mm 5 m/s 753 mmHg 87%
    09:00 +21°C° 0 mm 5 m/s 753 mmHg 84%
    10:00 +21°C° 0,1 mm 5 m/s 753 mmHg 82%
    11:00 +21°C° 0,1 mm 6 m/s 753 mmHg 80%
    12:00 +21°C° 0,1 mm 6 m/s 753 mmHg 78%
    13:00 +21°C° 0,2 mm 5 m/s 753 mmHg 80%
    14:00 +21°C° 0,2 mm 5 m/s 753 mmHg 83%
    15:00 +20°C° 0,2 mm 5 m/s 753 mmHg 85%
    16:00 +20°C° 0,2 mm 4 m/s 753 mmHg 87%
    17:00 +19°C° 0,2 mm 4 m/s 753 mmHg 89%
    18:00 +19°C° 0,2 mm 3 m/s 753 mmHg 91%
    19:00 +18°C° 0,3 mm 3 m/s 753 mmHg 93%
    20:00 +18°C° 0,3 mm 2 m/s 753 mmHg 94%
    21:00 +17°C° 0,3 mm 2 m/s 753 mmHg 95%
    22:00 +16°C° 0,3 mm 2 m/s 753 mmHg 95%
    23:00 +16°C° 0,3 mm 2 m/s 753 mmHg 95%

    24 Iulie, Marţi

    Timp Temperatura Precipitaţii Vânt Presiune Umiditate
    00:00 +14°C° 0,3 mm 3 m/s 753 mmHg 95%
    01:00 +13°C° 0,1 mm 3 m/s 753 mmHg 95%
    02:00 +13°C° 0,1 mm 3 m/s 753 mmHg 95%
    03:00 +12°C° 0,1 mm 3 m/s 753 mmHg 95%
    04:00 +12°C° 0 mm 3 m/s 753 mmHg 94%
    05:00 +12°C° 0 mm 3 m/s 753 mmHg 93%
    06:00 +13°C° 0 mm 3 m/s 753 mmHg 92%
    07:00 +14°C° 0 mm 3 m/s 754 mmHg 87%
    08:00 +16°C° 0 mm 3 m/s 754 mmHg 81%
    09:00 +17°C° 0 mm 3 m/s 754 mmHg 76%
    10:00 +18°C° 0 mm 3 m/s 754 mmHg 72%
    11:00 +18°C° 0 mm 3 m/s 754 mmHg 69%
    12:00 +19°C° 0 mm 3 m/s 754 mmHg 65%
    13:00 +19°C° 0 mm 4 m/s 755 mmHg 63%
    14:00 +20°C° 0 mm 4 m/s 755 mmHg 61%
    15:00 +20°C° 0 mm 4 m/s 755 mmHg 58%
    16:00 +19°C° 0 mm 4 m/s 755 mmHg 61%
    17:00 +19°C° 0 mm 4 m/s 755 mmHg 63%
    18:00 +18°C° 0 mm 4 m/s 755 mmHg 65%
    19:00 +16°C° 0 mm 3 m/s 756 mmHg 71%
    20:00 +14°C° 0 mm 3 m/s 756 mmHg 77%
    21:00 +13°C° 0 mm 2 m/s 756 mmHg 84%
    22:00 +12°C° 0 mm 2 m/s 756 mmHg 85%
    23:00 +12°C° 0 mm 2 m/s 757 mmHg 87%

    25 Iulie, Miercuri

    Timp Temperatura Precipitaţii Vânt Presiune Umiditate
    00:00 +10°C° 0 mm 2 m/s 757 mmHg 88%
    01:00 +11°C° 0 mm 1 m/s 757 mmHg 88%
    02:00 +11°C° 0 mm 1 m/s 757 mmHg 87%
    03:00 +11°C° 0 mm 1 m/s 757 mmHg 87%
    04:00 +12°C° 0 mm 1 m/s 757 mmHg 85%
    05:00 +12°C° 0 mm 1 m/s 757 mmHg 84%
    06:00 +13°C° 0 mm 1 m/s 757 mmHg 82%
    07:00 +15°C° 0 mm 1 m/s 757 mmHg 76%
    08:00 +16°C° 0 mm 1 m/s 757 mmHg 70%
    09:00 +19°C° 0 mm 1 m/s 757 mmHg 64%
    10:00 +19°C° 0 mm 2 m/s 757 mmHg 61%
    11:00 +20°C° 0 mm 2 m/s 757 mmHg 59%
    12:00 +21°C° 0 mm 3 m/s 756 mmHg 57%
    13:00 +21°C° 0 mm 3 m/s 756 mmHg 57%
    14:00 +21°C° 0 mm 4 m/s 756 mmHg 57%
    15:00 +22°C° 0 mm 4 m/s 756 mmHg 58%
    16:00 +21°C° 0 mm 4 m/s 755 mmHg 62%
    17:00 +21°C° 0 mm 4 m/s 755 mmHg 67%
    18:00 +21°C° 0 mm 4 m/s 754 mmHg 71%
    19:00 +19°C° 0 mm 4 m/s 754 mmHg 77%
    20:00 +18°C° 0 mm 4 m/s 754 mmHg 83%
    21:00 +15°C° 0 mm 4 m/s 754 mmHg 89%
    22:00 +16°C° 0 mm 3 m/s 754 mmHg 90%
    23:00 +14°C° 0 mm 3 m/s 754 mmHg 91%

    26 Iulie, Joi

    Timp Temperatura Precipitaţii Vânt Presiune Umiditate
    00:00 +14°C° 0 mm 3 m/s 754 mmHg 92%
    01:00 +14°C° 0 mm 3 m/s 754 mmHg 93%
    02:00 +13°C° 0 mm 3 m/s 754 mmHg 93%
    03:00 +13°C° 0 mm 3 m/s 754 mmHg 94%
    04:00 +13°C° 0 mm 3 m/s 754 mmHg 93%
    05:00 +14°C° 0 mm 3 m/s 755 mmHg 93%
    06:00 +14°C° 0 mm 3 m/s 755 mmHg 92%
    07:00 +16°C° 0 mm 3 m/s 755 mmHg 89%
    08:00 +17°C° 0 mm 3 m/s 756 mmHg 86%
    09:00 +19°C° 0 mm 3 m/s 756 mmHg 83%
    10:00 +20°C° 0,1 mm 3 m/s 756 mmHg 79%
    11:00 +21°C° 0,1 mm 2 m/s 757 mmHg 75%
    12:00 +23°C° 0,1 mm 2 m/s 757 mmHg 71%
    13:00 +23°C° 0,1 mm 2 m/s 757 mmHg 71%
    14:00 +22°C° 0,1 mm 3 m/s 757 mmHg 70%
    15:00 +22°C° 0,1 mm 3 m/s 757 mmHg 70%
    16:00 +22°C° 0,1 mm 3 m/s 757 mmHg 72%
    17:00 +22°C° 0,1 mm 3 m/s 757 mmHg 74%
    18:00 +22°C° 0,1 mm 3 m/s 757 mmHg 76%
    19:00 +20°C° 0 mm 3 m/s 757 mmHg 81%
    20:00 +18°C° 0 mm 2 m/s 757 mmHg 87%
    21:00 +17°C° 0 mm 2 m/s 757 mmHg 92%
    22:00 +16°C° 0 mm 2 m/s 757 mmHg 93%
    23:00 +16°C° 0 mm 2 m/s 757 mmHg 93%
    Arată mai mult